When you browse on this site, cookies collect data to enhance your experience and personalize the content and advertising you see.
Visit our Privacy Policy to learn more. By continuing to use the site, you agree to this use of cookies and data.
  • In Latvia
  • List of Countries
  • For 7 days
  • Water Temperature
  • Satellite Maps
  • Weather Map
  • Weather Widgets
  • user-avatar
    Login

    Hourly Weather Dyudikovo

    Today, 20 February, Wednesday

    Time Temperature Precipitation Wind Pressure Humidity
    00:00 -3°C° 0 mm 4 mps 738 mmHg 88%
    01:00 -2°C° 0 mm 4 mps 738 mmHg 88%
    02:00 -2°C° 0 mm 4 mps 737 mmHg 88%
    03:00 -2°C° 0 mm 4 mps 736 mmHg 88%
    04:00 -1°C° 0.1 mm 4 mps 736 mmHg 88%
    05:00 -1°C° 0.1 mm 5 mps 735 mmHg 88%
    06:00 -1°C° 0.1 mm 5 mps 734 mmHg 88%
    07:00 -1°C° 0.2 mm 5 mps 734 mmHg 89%
    08:00 0°C° 0.2 mm 5 mps 733 mmHg 89%
    09:00 0°C° 0.2 mm 5 mps 733 mmHg 89%
    10:00 0°C° 0 mm 5 mps 733 mmHg 89%
    11:00 0°C° 0 mm 5 mps 733 mmHg 89%
    12:00 0°C° 0 mm 5 mps 733 mmHg 89%
    13:00 0°C° 0 mm 5 mps 733 mmHg 89%
    14:00 0°C° 0 mm 5 mps 733 mmHg 89%
    15:00 0°C° 0 mm 5 mps 733 mmHg 89%
    16:00 0°C° 0.1 mm 5 mps 733 mmHg 89%
    17:00 0°C° 0.1 mm 5 mps 733 mmHg 90%
    18:00 0°C° 0.1 mm 4 mps 733 mmHg 90%
    19:00 0°C° 0.2 mm 4 mps 732 mmHg 91%
    20:00 0°C° 0.2 mm 4 mps 732 mmHg 91%
    21:00 -1°C° 0.2 mm 4 mps 732 mmHg 91%
    22:00 0°C° 0.2 mm 3 mps 732 mmHg 93%
    23:00 0°C° 0.2 mm 3 mps 732 mmHg 94%

    Tomorrow, 21 February, Thursday

    Time Temperature Precipitation Wind Pressure Humidity
    00:00 +1°C° 0.2 mm 2 mps 732 mmHg 95%
    01:00 +1°C° 0.3 mm 2 mps 732 mmHg 96%
    02:00 +1°C° 0.3 mm 1 mps 732 mmHg 96%
    03:00 +1°C° 0.3 mm 1 mps 732 mmHg 97%
    04:00 +1°C° 0.6 mm 1 mps 732 mmHg 97%
    05:00 +1°C° 0.6 mm 1 mps 732 mmHg 97%
    06:00 -1°C° 0.6 mm 2 mps 733 mmHg 97%
    07:00 -1°C° 0.3 mm 2 mps 733 mmHg 95%
    08:00 -2°C° 0.3 mm 3 mps 734 mmHg 94%
    09:00 -3°C° 0.3 mm 4 mps 735 mmHg 92%
    10:00 -5°C° 0.2 mm 5 mps 736 mmHg 90%
    11:00 -8°C° 0.2 mm 6 mps 737 mmHg 88%
    12:00 -9°C° 0.2 mm 7 mps 738 mmHg 85%
    13:00 -11°C° 0.1 mm 7 mps 739 mmHg 83%
    14:00 -11°C° 0.1 mm 7 mps 740 mmHg 82%
    15:00 -12°C° 0.1 mm 7 mps 741 mmHg 80%
    16:00 -12°C° 0.1 mm 7 mps 742 mmHg 79%
    17:00 -13°C° 0.1 mm 7 mps 743 mmHg 79%
    18:00 -13°C° 0.1 mm 7 mps 744 mmHg 79%
    19:00 -14°C° 0.1 mm 7 mps 744 mmHg 77%
    20:00 -14°C° 0.1 mm 7 mps 745 mmHg 76%
    21:00 -15°C° 0.1 mm 7 mps 746 mmHg 74%
    22:00 -15°C° 0 mm 7 mps 746 mmHg 74%
    23:00 -17°C° 0 mm 7 mps 747 mmHg 75%

    Day after tomorrow, 22 February, Friday

    Time Temperature Precipitation Wind Pressure Humidity
    00:00 -17°C° 0 mm 7 mps 747 mmHg 75%
    01:00 -17°C° 0 mm 7 mps 748 mmHg 75%
    02:00 -17°C° 0 mm 7 mps 748 mmHg 75%
    03:00 -17°C° 0 mm 7 mps 748 mmHg 75%
    04:00 -17°C° 0 mm 7 mps 749 mmHg 75%
    05:00 -17°C° 0 mm 7 mps 749 mmHg 75%
    06:00 -17°C° 0 mm 8 mps 749 mmHg 74%
    07:00 -17°C° 0.1 mm 8 mps 750 mmHg 74%
    08:00 -17°C° 0.1 mm 8 mps 750 mmHg 73%
    09:00 -17°C° 0.1 mm 9 mps 750 mmHg 72%
    10:00 -16°C° 0.1 mm 9 mps 751 mmHg 70%
    11:00 -16°C° 0.1 mm 9 mps 751 mmHg 68%
    12:00 -16°C° 0.1 mm 9 mps 752 mmHg 66%
    13:00 -16°C° 0 mm 9 mps 752 mmHg 65%
    14:00 -15°C° 0 mm 8 mps 753 mmHg 65%
    15:00 -15°C° 0 mm 8 mps 753 mmHg 65%
    16:00 -15°C° 0 mm 8 mps 754 mmHg 67%
    17:00 -15°C° 0 mm 7 mps 754 mmHg 68%
    18:00 -15°C° 0 mm 7 mps 755 mmHg 70%
    19:00 -15°C° 0 mm 7 mps 756 mmHg 72%
    20:00 -16°C° 0 mm 6 mps 756 mmHg 73%
    21:00 -16°C° 0 mm 6 mps 757 mmHg 75%
    22:00 -17°C° 0 mm 6 mps 757 mmHg 76%
    23:00 -17°C° 0 mm 6 mps 758 mmHg 77%

    23 February, Saturday

    Time Temperature Precipitation Wind Pressure Humidity
    00:00 -18°C° 0 mm 5 mps 758 mmHg 79%
    01:00 -18°C° 0 mm 5 mps 758 mmHg 79%
    02:00 -18°C° 0 mm 5 mps 759 mmHg 80%
    03:00 -18°C° 0 mm 5 mps 759 mmHg 80%
    04:00 -19°C° 0 mm 5 mps 760 mmHg 80%
    05:00 -19°C° 0 mm 5 mps 760 mmHg 81%
    06:00 -18°C° 0 mm 4 mps 760 mmHg 81%
    07:00 -18°C° 0 mm 4 mps 760 mmHg 81%
    08:00 -18°C° 0 mm 4 mps 760 mmHg 82%
    09:00 -18°C° 0 mm 4 mps 761 mmHg 82%
    10:00 -16°C° 0 mm 3 mps 761 mmHg 79%
    11:00 -15°C° 0 mm 3 mps 761 mmHg 77%
    12:00 -14°C° 0 mm 3 mps 761 mmHg 75%
    13:00 -13°C° 0 mm 3 mps 761 mmHg 74%
    14:00 -13°C° 0 mm 3 mps 760 mmHg 73%
    15:00 -10°C° 0 mm 2 mps 760 mmHg 72%
    16:00 -10°C° 0 mm 2 mps 760 mmHg 76%
    17:00 -10°C° 0 mm 2 mps 759 mmHg 79%
    18:00 -12°C° 0 mm 2 mps 759 mmHg 83%
    19:00 -10°C° 0 mm 2 mps 758 mmHg 83%
    20:00 -10°C° 0 mm 2 mps 758 mmHg 83%
    21:00 -12°C° 0 mm 3 mps 758 mmHg 83%
    22:00 -12°C° 0.2 mm 3 mps 757 mmHg 86%
    23:00 -10°C° 0.2 mm 3 mps 757 mmHg 89%

    24 February, Sunday

    Time Temperature Precipitation Wind Pressure Humidity
    00:00 -10°C° 0.2 mm 3 mps 756 mmHg 92%
    01:00 -10°C° 0.1 mm 3 mps 756 mmHg 92%
    02:00 -10°C° 0.1 mm 3 mps 756 mmHg 92%
    03:00 -9°C° 0.1 mm 3 mps 756 mmHg 91%
    04:00 -9°C° 0.1 mm 3 mps 755 mmHg 92%
    05:00 -9°C° 0.1 mm 3 mps 755 mmHg 93%
    06:00 -8°C° 0.1 mm 3 mps 755 mmHg 94%
    07:00 -7°C° 0.1 mm 2 mps 755 mmHg 94%
    08:00 -6°C° 0.1 mm 2 mps 755 mmHg 94%
    09:00 -6°C° 0.1 mm 2 mps 755 mmHg 94%
    10:00 -4°C° 0 mm 2 mps 755 mmHg 94%
    11:00 -3°C° 0 mm 2 mps 756 mmHg 93%
    12:00 -2°C° 0 mm 2 mps 756 mmHg 93%
    13:00 -1°C° 0 mm 2 mps 756 mmHg 93%
    14:00 -1°C° 0 mm 2 mps 756 mmHg 94%
    15:00 +1°C° 0 mm 2 mps 756 mmHg 95%
    16:00 -1°C° 0 mm 2 mps 756 mmHg 95%
    17:00 -2°C° 0 mm 2 mps 756 mmHg 95%
    18:00 -2°C° 0 mm 2 mps 756 mmHg 95%
    19:00 -3°C° 0 mm 2 mps 756 mmHg 95%
    20:00 -3°C° 0 mm 2 mps 755 mmHg 95%
    21:00 -3°C° 0 mm 2 mps 755 mmHg 94%
    22:00 -4°C° 0 mm 3 mps 754 mmHg 94%
    23:00 -4°C° 0 mm 3 mps 754 mmHg 94%

    25 February, Monday

    Time Temperature Precipitation Wind Pressure Humidity
    00:00 -4°C° 0 mm 4 mps 753 mmHg 93%
    01:00 -4°C° 0 mm 4 mps 753 mmHg 93%
    02:00 -4°C° 0 mm 4 mps 752 mmHg 92%
    03:00 -4°C° 0 mm 5 mps 751 mmHg 91%
    04:00 -4°C° 0.2 mm 5 mps 750 mmHg 91%
    05:00 -4°C° 0.2 mm 5 mps 749 mmHg 92%
    06:00 -4°C° 0.2 mm 5 mps 748 mmHg 92%
    07:00 -2°C° 0.2 mm 5 mps 747 mmHg 91%
    08:00 -2°C° 0.2 mm 5 mps 747 mmHg 90%
    09:00 -1°C° 0.2 mm 5 mps 746 mmHg 89%
    10:00 -1°C° 0.1 mm 5 mps 746 mmHg 88%
    11:00 0°C° 0.1 mm 5 mps 746 mmHg 87%
    12:00 0°C° 0.1 mm 5 mps 746 mmHg 87%
    13:00 -1°C° 0 mm 5 mps 745 mmHg 86%
    14:00 -1°C° 0 mm 4 mps 745 mmHg 85%
    15:00 -1°C° 0 mm 4 mps 745 mmHg 85%
    16:00 -2°C° 0.2 mm 4 mps 745 mmHg 86%
    17:00 -2°C° 0.2 mm 4 mps 744 mmHg 88%
    18:00 -1°C° 0.2 mm 3 mps 744 mmHg 89%
    19:00 -2°C° 0.1 mm 3 mps 744 mmHg 90%
    20:00 -2°C° 0.1 mm 3 mps 744 mmHg 91%
    21:00 -2°C° 0.1 mm 3 mps 744 mmHg 92%
    22:00 -2°C° 0 mm 3 mps 745 mmHg 92%
    23:00 -4°C° 0 mm 3 mps 745 mmHg 93%
    Show more